Retour au catalogue

HULIANWANG DIGUI-51

ActifCommunicationsLEO
NORAD 65108·PAYLOAD·🇨🇳 China

Lancé Aug 4, 2025 depuis Wenchang Space Launch Site

Loading…

Prochains Passages (prochaines 24 heures)

TLE

FraisSource: Space-Track

Époque: Sep 14, 2026, 14:35 UTC

1 65108U 25168C   26257.60790315 -.00000082  00000-0  91328-4 0  9993
2 65108  50.0059   5.1201 0009512 355.2368   4.8412 13.29329096 54584

Suivez HULIANWANG DIGUI-51 en temps réel avec AllMySat

Download on the App Store